Content
SEND FEEDBACK

Daily
Averages
Monthly
Summary
United States of America

CORDELL, OKLAHOMA


Home > North America > United States > Oklahoma
Elevation: 1580 feet     Latitude: 35 17N     Longitude: 098 58W

WEATHER
 
SELECT A DAY
Number of Records: 213,831;   Date Range: 5/19/05 - 7/25/14
 
SHARE

PRINT THIS DATA

[ ← Previous Day ]
WEATHER ALMANAC - JANUARY 31, 2013
[ Next Day → ]
[ °C ]   °F
Weather ElementAverageHighLow
Temperature36.7 °F60.8 °F (1:35 pm)23 °F (7:55 am)
Dewpoint19.6 °F24.8 °F (11:15 am)14 °F (12:35 am)
Humidity54 %86 % (7:55 am)16 % (1:35 pm)
Barometer30.14 in30.37 in (9:15 pm)30.01 in (4:35 am)
Wind Speed9.9 mph26.5 mph (3:15 pm)
Wind Gust28.8 mph (4:55 pm)
Weather ElementAverage
Visibility10 mi
Wind DirectionESE (111.3 °)

Weather ElementTotal
Precipitation---
Heating Degree Days23.1 (Base 65)
Averaged from 70 records on January 31, 2013
WEATHER CONDITIONS BREAKOUT
WIND DIRECTION BREAKOUT
WEATHER BY HOUR - JANUARY 31, 2013
[ °C ]   °F
Local TimeTemperatureDewpointHumidityBarometerVisibilityWind DirectionWind SpeedGust SpeedPrecipitationEventsConditions
12:35 AM33.8 °F14.0 °F44 %30.04 in10.0 miWest (270°)4.6 mphClear
12:55 AM33.8 °F14.0 °F44 %30.04 in10.0 miCalmClear
1:15 AM33.8 °F14.0 °F44 %30.04 in10.0 miCalmClear
1:35 AM33.8 °F14.0 °F44 %30.03 in10.0 miCalmClear
1:55 AM32.0 °F17.6 °F55 %30.03 in10.0 miCalmClear
2:15 AM32.0 °F17.6 °F55 %30.03 in10.0 miCalmClear
2:35 AM32.0 °F17.6 °F55 %30.03 in10.0 miNE (40°)3.5 mphClear
2:55 AM32.0 °F17.6 °F55 %30.04 in10.0 miCalmClear
3:15 AM30.2 °F17.6 °F60 %30.02 in10.0 miCalmClear
3:35 AM32.0 °F17.6 °F55 %30.02 in10.0 miCalmClear
3:55 AM28.4 °F21.2 °F74 %30.02 in10.0 miCalmClear
4:15 AM28.4 °F19.4 °F69 %30.02 in10.0 miCalmClear
4:35 AM30.2 °F19.4 °F64 %30.01 in10.0 miCalmClear
4:55 AM26.6 °F19.4 °F74 %30.02 in10.0 miCalmClear
5:15 AM24.8 °F19.4 °F80 %30.01 in10.0 miCalmClear
5:35 AM26.6 °F21.2 °F80 %30.02 in10.0 miCalmClear
5:55 AM26.6 °F19.4 °F74 %30.02 in10.0 miSouth (170°)5.8 mphClear
6:15 AM26.6 °F19.4 °F74 %30.02 in10.0 miSouth (170°)8.1 mphClear
6:35 AM28.4 °F19.4 °F69 %30.01 in10.0 miSSE (160°)6.9 mphClear
6:55 AM28.4 °F19.4 °F69 %30.02 in10.0 miSSE (150°)4.6 mphClear
7:15 AM28.4 °F19.4 °F69 %30.02 in10.0 miESE (120°)3.5 mphClear
7:35 AM26.6 °F19.4 °F74 %30.03 in10.0 miNorth (360°)4.6 mphClear
7:55 AM23.0 °F19.4 °F86 %30.05 in10.0 miNorth (360°)8.1 mphClear
8:15 AM26.6 °F19.4 °F74 %30.05 in10.0 miNorth (10°)5.8 mphClear
8:35 AM26.6 °F21.2 °F80 %30.05 in10.0 miNorth (360°)4.6 mphClear
8:55 AM28.4 °F21.2 °F74 %30.07 in10.0 miNNW (330°)4.6 mphClear
9:15 AM30.2 °F21.2 °F69 %30.08 in10.0 miCalmClear
9:35 AM32.0 °F23.0 °F69 %30.07 in10.0 miSouth (170°)3.5 mphClear
9:55 AM33.8 °F23.0 °F65 %30.08 in10.0 miSouth (190°)5.8 mphClear
10:15 AM35.6 °F23.0 °F60 %30.08 in10.0 miSSW (200°)6.9 mphClear
10:35 AM37.4 °F21.2 °F52 %30.07 in10.0 miSW (220°)5.8 mphClear
10:55 AM39.2 °F21.2 °F49 %30.09 in10.0 miWNW (290°)4.6 mphClear
11:15 AM42.8 °F24.8 °F49 %30.09 in10.0 miWNW (300°)4.6 mphClear
11:35 AM48.2 °F23.0 °F37 %30.10 in10.0 miNW (310°)10.4 mphClear
11:55 AM50.0 °F21.2 °F32 %30.09 in10.0 miNW (310°)6.9 mphClear
12:15 PM51.8 °F19.4 °F28 %30.09 in10.0 miWNW (300°)8.1 mphClear
12:35 PM55.4 °F19.4 °F25 %30.08 in10.0 miWNW (300°)5.8 mphClear
12:55 PM57.2 °F17.6 °F21 %30.07 in10.0 miNW (320°)10.4 mphClear
1:15 PM59.0 °F17.6 °F20 %30.07 in10.0 miNW (320°)9.2 mphClear
1:35 PM60.8 °F14.0 °F16 %30.07 in10.0 miNNW (340°)11.5 mphClear
1:55 PM59.0 °F21.2 °F23 %30.07 in10.0 miNNE (20°)19.6 mph26.5 mphClear
2:15 PM59.0 °F19.4 °F22 %30.07 in10.0 miNorth (360°)18.4 mph23.0 mphClear
2:35 PM57.2 °F19.4 °F23 %30.08 in10.0 miNNE (20°)21.9 mph25.3 mphClear
2:55 PM55.4 °F21.2 °F26 %30.09 in10.0 miNNE (30°)25.3 mphClear
3:15 PM53.6 °F21.2 °F28 %30.11 in10.0 miNNE (20°)26.5 mphClear
3:35 PM53.6 °F21.2 °F28 %30.11 in10.0 miNE (40°)25.3 mphClear
3:55 PM51.8 °F21.2 °F30 %30.16 in10.0 miNE (50°)24.2 mphClear
4:15 PM50.0 °F23.0 °F35 %30.17 in10.0 miENE (60°)19.6 mph25.3 mphClear
4:35 PM48.2 °F23.0 °F37 %30.19 in10.0 miNE (50°)20.7 mph26.5 mphClear
4:55 PM46.4 °F23.0 °F40 %30.20 in10.0 miNE (50°)24.2 mph28.8 mphClear
5:15 PM42.8 °F23.0 °F46 %30.24 in10.0 miENE (60°)20.7 mph26.5 mphClear
5:35 PM42.8 °F23.0 °F46 %30.25 in10.0 miNE (40°)19.6 mphClear
5:55 PM41.0 °F24.8 °F53 %30.27 in10.0 miNE (50°)15.0 mphClear
6:15 PM39.2 °F24.8 °F56 %30.28 in10.0 miNE (50°)15.0 mphClear
6:35 PM35.6 °F24.8 °F65 %30.30 in10.0 miNE (50°)13.8 mph19.6 mphClear
6:55 PM35.6 °F23.0 °F60 %30.31 in10.0 miNE (50°)16.1 mphClear
7:15 PM33.8 °F23.0 °F65 %30.33 in10.0 miNE (50°)16.1 mphClear
7:35 PM33.8 °F21.2 °F60 %30.34 in10.0 miNE (40°)11.5 mphClear
8:15 PM32.0 °F21.2 °F64 %30.36 in10.0 miNE (50°)13.8 mphClear
8:35 PM30.2 °F17.6 °F60 %30.36 in10.0 miNE (50°)19.6 mph25.3 mphClear
8:55 PM30.2 °F17.6 °F60 %30.36 in10.0 miNE (50°)15.0 mph20.7 mphClear
9:15 PM28.4 °F17.6 °F64 %30.37 in10.0 miNE (50°)16.1 mphClear
9:35 PM28.4 °F17.6 °F64 %30.36 in10.0 miNE (40°)18.4 mphClear
9:55 PM28.4 °F17.6 °F64 %30.35 in10.0 miNE (50°)17.3 mph25.3 mphClear
10:15 PM28.4 °F17.6 °F64 %30.36 in10.0 miNE (50°)16.1 mphClear
10:35 PM26.6 °F17.6 °F69 %30.37 in10.0 miENE (60°)15.0 mphClear
10:55 PM26.6 °F15.8 °F64 %30.36 in10.0 miENE (60°)12.7 mphClear
11:15 PM26.6 °F14.0 °F59 %30.36 in10.0 miENE (60°)12.7 mphClear
11:35 PM26.6 °F14.0 °F59 %30.36 in10.0 miNE (50°)15.0 mph19.6 mphClear
11:55 PM26.6 °F14.0 °F59 %30.36 in10.0 miENE (60°)11.5 mphClear
Hourly data recorded from KCLK, located miles away from Cordell, Oklahoma







STORIES FROM OUR PARTNERS